When you browse on this site, cookies collect data to enhance your experience and personalize the content and advertising you see.
Visit our Privacy Policy to learn more. By continuing to use the site, you agree to this use of cookies and data.
  • Em Portugal
  • Lista de países
  • Para 7 dias
  • Temperatura da água
  • Mapa do tempo
  • Widgets de tempo
  • user-avatar
    Iniciar Sessão

    Previsão horária em Velikie Prussy

    Hoje, 23 Setembro, Segunda-feira

    Tempo Temperatura Precipitação Vento Pressão Humidade
    00:00 +6°C° 0 mm 4 m/s 748 mmHg 81%
    01:00 +5°C° 0 mm 4 m/s 749 mmHg 80%
    02:00 +5°C° 0 mm 3 m/s 749 mmHg 79%
    03:00 +4°C° 0 mm 3 m/s 749 mmHg 84%
    04:00 +3°C° 0 mm 3 m/s 749 mmHg 89%
    05:00 +3°C° 0 mm 2 m/s 750 mmHg 95%
    06:00 +4°C° 0 mm 2 m/s 750 mmHg 90%
    07:00 +3°C° 0 mm 3 m/s 751 mmHg 85%
    08:00 +4°C° 0 mm 3 m/s 751 mmHg 80%
    09:00 +7°C° 0 mm 3 m/s 751 mmHg 71%
    10:00 +8°C° 0 mm 3 m/s 751 mmHg 62%
    11:00 +10°C° 0 mm 3 m/s 752 mmHg 53%
    12:00 +10°C° 0 mm 2 m/s 752 mmHg 50%
    13:00 +12°C° 0 mm 2 m/s 752 mmHg 46%
    14:00 +12°C° 0 mm 2 m/s 751 mmHg 42%
    15:00 +12°C° 0 mm 2 m/s 751 mmHg 46%
    16:00 +10°C° 0 mm 2 m/s 751 mmHg 49%
    17:00 +11°C° 0 mm 1 m/s 751 mmHg 53%
    18:00 +8°C° 0 mm 2 m/s 751 mmHg 56%
    19:00 +7°C° 0 mm 2 m/s 751 mmHg 60%
    20:00 +5°C° 0 mm 2 m/s 751 mmHg 63%
    21:00 +4°C° 0 mm 2 m/s 751 mmHg 66%
    22:00 +4°C° 0 mm 2 m/s 751 mmHg 68%
    23:00 +3°C° 0 mm 2 m/s 751 mmHg 70%

    Amanhã, 24 Setembro, Terça-feira

    Tempo Temperatura Precipitação Vento Pressão Humidade
    00:00 +4°C° 0 mm 1 m/s 752 mmHg 71%
    01:00 +4°C° 0 mm 1 m/s 752 mmHg 72%
    02:00 +3°C° 0 mm 1 m/s 752 mmHg 73%
    03:00 +3°C° 0 mm 1 m/s 752 mmHg 75%
    04:00 +3°C° 0 mm 1 m/s 751 mmHg 76%
    05:00 +2°C° 0 mm 1 m/s 751 mmHg 78%
    06:00 +3°C° 0 mm 1 m/s 751 mmHg 73%
    07:00 +5°C° 0 mm 1 m/s 751 mmHg 69%
    08:00 +6°C° 0 mm 1 m/s 751 mmHg 65%
    09:00 +7°C° 0 mm 1 m/s 751 mmHg 59%
    10:00 +9°C° 0 mm 1 m/s 751 mmHg 54%
    11:00 +11°C° 0 mm 1 m/s 751 mmHg 48%
    12:00 +11°C° 0 mm 1 m/s 751 mmHg 45%
    13:00 +12°C° 0 mm 1 m/s 750 mmHg 42%
    14:00 +12°C° 0 mm 1 m/s 750 mmHg 40%
    15:00 +12°C° 0 mm 1 m/s 749 mmHg 44%
    16:00 +11°C° 0 mm 1 m/s 749 mmHg 48%
    17:00 +11°C° 0 mm 1 m/s 749 mmHg 52%
    18:00 +8°C° 0 mm 2 m/s 749 mmHg 54%
    19:00 +7°C° 0 mm 2 m/s 749 mmHg 57%
    20:00 +5°C° 0 mm 2 m/s 749 mmHg 59%
    21:00 +5°C° 0 mm 2 m/s 749 mmHg 60%
    22:00 +4°C° 0 mm 2 m/s 749 mmHg 61%
    23:00 +4°C° 0 mm 2 m/s 749 mmHg 63%

    Depois de amanhã, 25 Setembro, Quarta-feira

    Tempo Temperatura Precipitação Vento Pressão Humidade
    00:00 +3°C° 0 mm 2 m/s 749 mmHg 64%
    01:00 +2°C° 0 mm 3 m/s 749 mmHg 66%
    02:00 +2°C° 0 mm 3 m/s 749 mmHg 68%
    03:00 +1°C° 0 mm 3 m/s 749 mmHg 69%
    04:00 +1°C° 0 mm 3 m/s 748 mmHg 70%
    05:00 +1°C° 0 mm 3 m/s 748 mmHg 70%
    06:00 +2°C° 0 mm 3 m/s 748 mmHg 67%
    07:00 +3°C° 0 mm 3 m/s 748 mmHg 64%
    08:00 +4°C° 0 mm 3 m/s 748 mmHg 60%
    09:00 +7°C° 0 mm 3 m/s 748 mmHg 58%
    10:00 +8°C° 0 mm 3 m/s 748 mmHg 55%
    11:00 +10°C° 0 mm 3 m/s 748 mmHg 52%
    12:00 +11°C° 0 mm 3 m/s 747 mmHg 51%
    13:00 +12°C° 0 mm 4 m/s 747 mmHg 51%
    14:00 +13°C° 0 mm 4 m/s 746 mmHg 51%
    15:00 +13°C° 0 mm 3 m/s 746 mmHg 54%
    16:00 +12°C° 0 mm 3 m/s 746 mmHg 58%
    17:00 +13°C° 0 mm 2 m/s 745 mmHg 62%
    18:00 +11°C° 0 mm 3 m/s 745 mmHg 65%
    19:00 +10°C° 0 mm 3 m/s 745 mmHg 67%
    20:00 +9°C° 0 mm 3 m/s 745 mmHg 69%
    21:00 +9°C° 0 mm 3 m/s 745 mmHg 69%
    22:00 +9°C° 0 mm 3 m/s 745 mmHg 69%
    23:00 +9°C° 0 mm 3 m/s 745 mmHg 70%

    26 Setembro, Quinta-feira

    Tempo Temperatura Precipitação Vento Pressão Humidade
    00:00 +9°C° 0.1 mm 3 m/s 745 mmHg 72%
    01:00 +8°C° 0.1 mm 3 m/s 744 mmHg 74%
    02:00 +8°C° 0.1 mm 3 m/s 744 mmHg 76%
    03:00 +8°C° 0.1 mm 3 m/s 744 mmHg 79%
    04:00 +8°C° 0.1 mm 3 m/s 744 mmHg 83%
    05:00 +8°C° 0.1 mm 3 m/s 744 mmHg 86%
    06:00 +8°C° 0.1 mm 3 m/s 744 mmHg 86%
    07:00 +9°C° 0.1 mm 3 m/s 744 mmHg 86%
    08:00 +9°C° 0.1 mm 3 m/s 744 mmHg 86%
    09:00 +10°C° 0.2 mm 2 m/s 744 mmHg 85%
    10:00 +13°C° 0.2 mm 2 m/s 744 mmHg 83%
    11:00 +14°C° 0.2 mm 2 m/s 744 mmHg 81%
    12:00 +15°C° 0.3 mm 2 m/s 744 mmHg 80%
    13:00 +15°C° 0.3 mm 2 m/s 744 mmHg 79%
    14:00 +16°C° 0.3 mm 3 m/s 744 mmHg 78%
    15:00 +16°C° 0.3 mm 3 m/s 744 mmHg 81%
    16:00 +14°C° 0.3 mm 3 m/s 744 mmHg 85%
    17:00 +14°C° 0.3 mm 4 m/s 743 mmHg 88%
    18:00 +13°C° 0.1 mm 4 m/s 744 mmHg 90%
    19:00 +12°C° 0.1 mm 3 m/s 744 mmHg 93%
    20:00 +11°C° 0.1 mm 3 m/s 744 mmHg 95%
    21:00 +11°C° 0.1 mm 3 m/s 744 mmHg 96%
    22:00 +12°C° 0.1 mm 2 m/s 744 mmHg 96%
    23:00 +10°C° 0.1 mm 2 m/s 744 mmHg 97%

    27 Setembro, Sexta-feira

    Tempo Temperatura Precipitação Vento Pressão Humidade
    00:00 +10°C° 0 mm 2 m/s 745 mmHg 97%
    01:00 +11°C° 0 mm 1 m/s 745 mmHg 97%
    02:00 +11°C° 0 mm 1 m/s 745 mmHg 97%
    03:00 +11°C° 0 mm 1 m/s 745 mmHg 97%
    04:00 +12°C° 0 mm 1 m/s 745 mmHg 97%
    05:00 +12°C° 0 mm 1 m/s 745 mmHg 97%
    06:00 +12°C° 0 mm 1 m/s 745 mmHg 97%
    07:00 +12°C° 0 mm 1 m/s 746 mmHg 96%
    08:00 +12°C° 0 mm 1 m/s 746 mmHg 96%
    09:00 +12°C° 0 mm 1 m/s 746 mmHg 94%
    10:00 +13°C° 0 mm 1 m/s 747 mmHg 93%
    11:00 +13°C° 0 mm 1 m/s 747 mmHg 92%
    12:00 +13°C° 0 mm 1 m/s 747 mmHg 91%
    13:00 +13°C° 0 mm 1 m/s 747 mmHg 90%
    14:00 +14°C° 0 mm 1 m/s 747 mmHg 89%
    15:00 +14°C° 0.1 mm 1 m/s 747 mmHg 90%
    16:00 +13°C° 0.1 mm 1 m/s 747 mmHg 91%
    17:00 +13°C° 0.1 mm 1 m/s 747 mmHg 91%
    18:00 +13°C° 0 mm 1 m/s 748 mmHg 93%
    19:00 +12°C° 0 mm 1 m/s 748 mmHg 95%
    20:00 +11°C° 0 mm 1 m/s 748 mmHg 96%
    21:00 +11°C° 0 mm 1 m/s 748 mmHg 96%
    22:00 +11°C° 0 mm 1 m/s 749 mmHg 97%
    23:00 +10°C° 0 mm 1 m/s 749 mmHg 97%

    28 Setembro, Sábado

    Tempo Temperatura Precipitação Vento Pressão Humidade
    00:00 +10°C° 0 mm 1 m/s 749 mmHg 97%
    01:00 +10°C° 0 mm 1 m/s 749 mmHg 97%
    02:00 +10°C° 0 mm 1 m/s 749 mmHg 97%
    03:00 +10°C° 0 mm 1 m/s 748 mmHg 97%
    04:00 +8°C° 0 mm 2 m/s 748 mmHg 97%
    05:00 +8°C° 0 mm 2 m/s 748 mmHg 97%
    06:00 +9°C° 0 mm 2 m/s 748 mmHg 95%
    07:00 +9°C° 0 mm 3 m/s 748 mmHg 93%
    08:00 +10°C° 0 mm 3 m/s 748 mmHg 91%
    09:00 +11°C° 0 mm 4 m/s 748 mmHg 87%
    10:00 +13°C° 0 mm 4 m/s 748 mmHg 82%
    11:00 +14°C° 0 mm 4 m/s 748 mmHg 78%
    12:00 +15°C° 0 mm 5 m/s 747 mmHg 75%
    13:00 +17°C° 0 mm 5 m/s 747 mmHg 72%
    14:00 +19°C° 0 mm 5 m/s 746 mmHg 70%
    15:00 +18°C° 0.1 mm 4 m/s 746 mmHg 72%
    16:00 +18°C° 0.1 mm 4 m/s 745 mmHg 75%
    17:00 +18°C° 0.1 mm 3 m/s 745 mmHg 77%
    18:00 +17°C° 0.2 mm 3 m/s 745 mmHg 79%
    19:00 +16°C° 0.2 mm 3 m/s 745 mmHg 81%
    20:00 +16°C° 0.2 mm 3 m/s 745 mmHg 83%
    21:00 +14°C° 1.1 mm 3 m/s 744 mmHg 88%
    22:00 +14°C° 1.1 mm 3 m/s 744 mmHg 92%
    23:00 +13°C° 1.1 mm 3 m/s 744 mmHg 97%
    Mostrar mais